Regional Weather Roundup
Issued by NWS

Home | Current Version | Previous Version | Graphics & Text | Print | Product List | Glossary On
Versions: 1 2 3 4 5 6 7 8 9 10 11 12 13 14 15 16 17 18 19 20 21 22 23 24 25 26 27 28 29 30 31 32 33 34 35 36 37 38 39 40 41 42 43 44 45 46 47 48 49
000
ASUS45 KSLC 222310
RWRUT

UTAH REGIONAL WEATHER ROUNDUP
NATIONAL WEATHER SERVICE SALT LAKE CITY UT
500 PM MDT TUE JUL 22 2014

UTZ001>011-023>025-230000-

NORTHERN UTAH

CITY           SKY/WX    TMP DP  RH WIND       PRES   REMARKS
HILL AFB       SUNNY     94  36  13 VRB2      30.18F
LOGAN          NOT AVBL
OGDEN          SUNNY     95  34  11 MISG      30.14F HX  90
PROVO AIRPORT  MOSUNNY   97  34  11 VRB5      30.15F HX  91
SALT LAKE CITY MOSUNNY   97  32  10 N12G18    30.10F HX  91
VERNAL         SUNNY     95  21   7 SE6       30.22F
WENDOVER       SUNNY     93  37  14 NE8       30.12F
HEBER CITY     SUNNY     97  28   9 W9        30.22F HX  91
WEST JORDAN    SUNNY    100  48  17 W7        30.15F HX  97

$$

UTZ012>022-026-027-230000-

SOUTHERN UTAH

CITY           SKY/WX    TMP DP  RH WIND       PRES   REMARKS
BRYCE CANYON   SUNNY     87  28  12 E13G22    30.42F
CEDAR CITY     SUNNY     94  28   9 SW14G30   30.22F
MILFORD        SUNNY     98  26   7 SW18G24   30.16F HX  91
MOAB/CYNLANDS  SUNNY    100  21   6 N6        30.12F HX  93
PRICE          SUNNY     95  16   5 W7G17     30.28F
ST GEORGE      CLEAR    104  37  10 W7        30.01F HX  98
KANAB            N/A     97  36  11 CALM      30.20F HX  92

$$

REGIONAL REPORTS     COLORADO/ARIZONA

CITY           SKY/WX    TMP DP  RH WIND       PRES   REMARKS
CRAIG, CO      SUNNY     94  21   7 VRB7      30.31F
GRAND JUNCTION SUNNY     98  27   8 W10       30.16F HX  92
RIFLE          SUNNY     97   9   4 VRB3      30.22F HX  90
MONTROSE       SUNNY     97  21   6 NW10      30.24F HX  90
CORTEZ         SUNNY     99  26   7 S10       30.23F HX  92
PAGE, AZ       SUNNY    102  31   8 VRB3      30.11F HX  95
GRAND CANYON   PTSUNNY   88  33  14 SE12G20   30.35F
KINGMAN        SUNNY    100  19   5 SW12G22   30.08F HX  93
FLAGSTAFF      PTSUNNY   85  35  16 CALM      30.38F

$$

REGIONAL REPORTS    NEVADA/IDAHO/WYOMING

CITY           SKY/WX    TMP DP  RH WIND       PRES   REMARKS
LAS VEGAS, NV  MOSUNNY  107  22   5 SE9       29.91F HX  99
ELY            SUNNY     90  17   7 S16G28    30.25F
ELKO           SUNNY     94  24   8 SW15G22   30.11F
POCATELLO, ID  MOSUNNY   91  47  21 NW12      30.17F
BURLEY         SUNNY     90  48  23 NE9       30.09F
EVANSTON, WY   SUNNY     88  31  13 SW9G18    30.38F
ROCK SPRINGS   SUNNY     90  23   9 VRB7      30.36F

$$


USA.gov is the U.S. government's official web portal to all federal, state and local government web resources and services.